Location: Castelbiague
(43.0361°N, 0.9246°E)
Time: 11:26:50
(UTC+00:00)

Cosmos 1315 Rocket - Pass Details

Date: 17 June 2021
Orbit: 528 x 568 km, 81.2° (Epoch: 27 July)

Event Time Altitude Azimuth Distance (km) Brightness Sun altitude
Rises 20:14:44 0° 354° (N) 2,780 7.2 -6.2°
Reaches altitude 10° 20:16:58 10° 358° (N) 1,877 6.2 -6.5°
Maximum altitude 20:21:03 56° 78° (ENE) 682 3.1 -7.0°
Drops below altitude 10° 20:25:04 10° 156° (SSE) 1,851 4.9 -7.6°
Enters shadow 20:25:38 - 158° (SSE) 2,074 5.2 -7.7°
